User: anonymous   Login
Location: Caltech
(34.1382°N, 118.1253°W)
Time: 16:26:40
(UTC-07:00)
Language:

CZ-4B DEB - Orbit

View from above orbital plane
View from above orbital plane
View from above satellite
View from above satellite

Ground track
Ground track

The orbit data is extracted from the following two-line orbital elements,

1 27433U 02024D   17229.05853896  .00000076  00000-0  65709-4 0  9996
2 27433  98.9723 202.2181 0013413 237.8585 122.1285 14.12192095785763
Epoch (UTC): 17 August 2017 01:24:17
Eccentricity: 0.0013413
inclination: 98.9723°
perigee height: 842 km
apogee height: 861 km
right ascension of ascending node: 202.2181°
argument of perigee: 237.8585°
revolutions per day: 14.12192095
mean anomaly at epoch: 122.1285°
orbit number at epoch: 78576

The dashed part of the orbit path shows where the satellite is in the earth's shadow,  

DLR